Location: Newark
(36.9100°N, 76.7100°W)
Time: 03:10:39
(UTC+00:00)

ISS - Visible Passes

Search period start: 17 July 2019 00:00
Search period end: 27 July 2019 00:00
Orbit: 409 x 418 km, 51.6° (Epoch: 17 July)

Date Brightness Start Highest point End Pass type
(mag) Time Alt. Az. Time Alt. Az. Time Alt. Az.
17 Jul -3.7 01:40:04 10° SSW 01:43:18 50° SE 01:46:33 10° ENE visible
17 Jul -1.0 03:17:40 10° WNW 03:20:10 19° NNW 03:22:40 10° NNE visible
17 Jul -1.5 08:10:49 10° NNW 08:13:41 26° NNE 08:16:33 10° E visible
18 Jul -2.7 00:51:18 10° S 00:54:08 26° SE 00:56:58 10° ENE visible
18 Jul -1.7 02:27:46 10° W 02:30:44 29° NNW 02:33:43 10° NNE visible
18 Jul -0.8 07:21:53 10° NNW 07:24:15 18° NNE 07:26:35 10° ENE visible
18 Jul -3.8 08:57:55 10° WNW 09:01:10 58° SW 09:04:24 10° SE visible
19 Jul -2.8 01:38:07 10° WSW 01:41:22 50° NW 01:44:38 10° NE visible
19 Jul -0.2 03:17:41 10° NW 03:18:42 11° NNW 03:19:42 10° N visible
19 Jul -0.4 06:33:08 10° N 06:34:43 13° NNE 06:36:18 10° NE visible
19 Jul -3.6 08:08:36 10° NW 08:11:55 71° NE 08:15:11 10° SE visible
20 Jul -3.8 00:48:44 10° SW 00:52:04 84° SE 00:55:24 10° NE visible
20 Jul -0.5 02:27:06 10° WNW 02:29:08 15° NNW 02:31:09 10° NNE visible
20 Jul-0.407:26:35ESE07:26:35ESE07:18:35NWvisible
20 Jul -2.1 09:00:01 16° SSW 09:00:01 16° SSW 09:01:23 10° S visible
21 Jul -1.0 01:36:57 10° W 01:39:38 21° NNW 01:42:17 10° NNE visible
22 Jul -1.8 00:47:05 10° W 00:50:10 33° NW 00:53:15 10° NNE visible
23 Jul -0.5 01:36:38 10° NW 01:38:01 12° NNW 01:39:23 10° N visible
26 Jul -0.3 04:00:49 10° NNW 04:01:15 12° N 04:01:15 12° N visible
